{"data":{"norad_id":67733,"intl_designator":"2026-026N","name":"STARLINK-36746","alt_names":[],"object_type":"PAYLOAD","status":"ACTIVE","operator":null,"country":"US","launch_date":"2026-02-11","launch_site_code":"AFWTR","launch_vehicle":null,"mission":null,"orbit_class":"UNKNOWN","rcs_meters":null,"size_class":null,"mass_kg":null,"dimensions":null,"purposes":["comms"],"wikipedia_slug":null,"has_3d_model":false,"image_url":null,"decayed_at":null,"tle_current":{"epoch":"2026-05-25T03:29:46.523040Z","epoch_age_seconds":56305,"freshness":"FRESH","line1":"1 67733U 26026N   26145.14567735  .00011082  00000+0  34504-3 0  9998","line2":"2 67733  97.2850 198.6748 0000881  96.3253 263.8090 15.33450698 15847","mean_motion":15.33450698,"eccentricity":8.81e-5,"inclination_deg":97.285,"raan_deg":198.6748,"arg_perigee_deg":96.3253,"mean_anomaly_deg":263.809,"bstar":0.00034504,"rev_number":1584,"period_min":93.905855719921,"perigee_km":464.92329456171,"apogee_km":466.12914802131,"semimajor_km":6843.6632212915,"source":"CELESTRAK","updated_at":"2026-05-25T13:38:21.688981Z"}}}